Terminal Aerodrome Forecast
Issued by NWS Memphis, TN

Home | Current Version | Previous Version | Text Only | Print | Product List | Glossary On
Versions: 1 2 3 4 5 6 7 8 9 10 11 12 13 14 15 16 17 18 19 20 21 22 23 24 25 26 27 28 29 30 31
000
FTUS44 KMEG 300530
TAFMEM
TAF
KMEM 300530Z 3006/3106 16010KT P6SM SCT040 BKN150
     FM300800 18010KT P6SM VCTS BKN025CB OVC150
      TEMPO 3009/3013 3SM -TSRA BKN008CB
     FM301300 20012KT P6SM VCTS BKN008 OVC015CB
     FM301700 23012G20KT P6SM VCTS BKN025CB OVC100
      TEMPO 3017/3021 2SM TSRA OVC008CB
     FM302300 31007KT P6SM BKN050 BKN150=

USA.gov is the U.S. government's official web portal to all federal, state and local government web resources and services.